Thessaloniki, Greece

8:01 AM EEST on April 28, 2017 (GMT +0300)
Makedonia

Weather History for LGTS - February, 2013

Change the Weather History Date:

Tuesday, February 5, 2013

  Actual Average Record
Temperature  
Mean Temperature 44 °F -  
Max Temperature 57 °F 53 °F 64 °F (2009)
Min Temperature 32 °F 37 °F 24 °F (2011)
Degree Days  
Heating Degree Days 20    
Moisture  
Dew Point 35 °F    
Average Humidity 74    
Maximum Humidity 93    
Minimum Humidity 36    
Precipitation  
Precipitation 0.00 in 0.05 in - ()
Sea Level Pressure  
Sea Level Pressure 30.00 in    
Wind  
Wind Speed 3 mph ()    
Max Wind Speed 9 mph    
Max Gust Speed -    
Visibility 6.1 miles    
Events      
Averages and records for this station are not official NWS values.
T = Trace of Precipitation, MM = Missing Value Source: Averaged Metar Reports

Daily Weather History Graph

Daily Weather History Graph

Search for Another Location

Airport or City:

Trip Planner

Search our weather history database for the weather conditions in past years. The results will help you decide how hot, cold, wet, or windy it might be!

Date:

Astronomy

Feb. 05, 2013 Rise Set
Actual Time 7:33 AM EET 5:51 PM EET
Civil Twilight 7:05 AM EET 6:19 PM EET
Nautical Twilight 6:32 AM EET 6:52 PM EET
Astronomical Twilight 6:00 AM EET 7:24 PM EET
Moon 2:55 AM EET (2/5) 12:50 PM EET (2/5)
Length of Visible Light 11h 14m
Length of Day
10h 17m
Waning Crescent, 30% of the Moon is Illuminated
Feb 5
Waning Crescent
Feb 10
New
Feb 17
First Quarter
Feb 25
Full
Mar 4
Last Quarter

Hourly Weather History & Observations

Time (EET) Temp. Windchill Dew Point Humidity Pressure Visibility Wind Dir Wind Speed Gust Speed Precip Events Conditions
12:20 AM 39.2 °F 37.0 °F 33.8 °F 81% 30.04 in - Variable 3.5 mph - N/A   Clear
12:50 AM 39.2 °F 37.0 °F 32.0 °F 75% 30.04 in - Variable 3.5 mph - N/A   Clear
1:20 AM 37.4 °F 34.9 °F 32.0 °F 81% 30.04 in - Variable 3.5 mph - N/A   Clear
1:50 AM 37.4 °F - 32.0 °F 81% 30.04 in - Calm Calm - N/A   Clear
2:00 AM 37 °F - 32 °F 77% 30.05 in 6 mi Calm Calm - -   Clear
2:20 AM 37.4 °F - 33.8 °F 87% 30.04 in - Calm Calm - N/A   Clear
2:50 AM 37.4 °F - 33.8 °F 87% 30.04 in - Calm Calm - N/A   Clear
3:50 AM 33.8 °F - 32.0 °F 93% 30.04 in - Calm Calm - N/A   Clear
4:20 AM 33.8 °F - 32.0 °F 93% 30.04 in - Calm Calm - N/A   Clear
4:50 AM 33.8 °F 27.7 °F 30.2 °F 87% 30.04 in - WSW 6.9 mph - N/A   Clear
5:20 AM 33.8 °F 27.7 °F 30.2 °F 87% 30.04 in - WSW 6.9 mph - N/A   Clear
5:50 AM 32.0 °F 27.5 °F 30.2 °F 93% 30.06 in - WNW 4.6 mph - N/A   Clear
6:50 AM 32.0 °F 25.6 °F 30.2 °F 93% 30.06 in - WSW 6.9 mph - N/A   Clear
7:20 AM 32.0 °F 26.4 °F 30.2 °F 93% 30.06 in - WNW 5.8 mph - N/A   Clear
7:50 AM 33.8 °F 30.8 °F 30.2 °F 87% 30.06 in - Variable 3.5 mph - N/A   Clear
8:00 AM 33 °F - 31 °F 88% 30.08 in 6 mi 3.5 mph - -  
8:20 AM 33.8 °F 27.7 °F 32.0 °F 93% 30.06 in - ESE 6.9 mph - N/A   Clear
8:50 AM 35.6 °F 30.7 °F 32.0 °F 87% 30.06 in - ESE 5.8 mph - N/A   Clear
9:20 AM 41.0 °F 38.0 °F 35.6 °F 81% 30.06 in - SE 4.6 mph - N/A   Clear
9:50 AM 44.6 °F 43.1 °F 37.4 °F 76% 30.06 in - Variable 3.5 mph - N/A   Clear
10:20 AM 46.4 °F 44.3 °F 37.4 °F 71% 30.06 in - West 4.6 mph - N/A   Clear
10:50 AM 48.2 °F - 37.4 °F 66% 30.06 in - WNW 9.2 mph - N/A   Clear
11:20 AM 48.2 °F - 35.6 °F 62% 30.06 in - WNW 8.1 mph - N/A   Clear
11:50 AM 48.2 °F - 35.6 °F 62% 30.06 in - WNW 5.8 mph - N/A   Clear
12:20 PM 50.0 °F - 37.4 °F 62% 30.04 in - Variable 3.5 mph - N/A   Clear
12:50 PM 50.0 °F - 37.4 °F 62% 30.04 in - Variable 3.5 mph - N/A   Clear
1:20 PM 51.8 °F - 35.6 °F 54% 30.01 in 6.2 mi Variable 3.5 mph - N/A   Partly Cloudy
1:50 PM 53.6 °F - 33.8 °F 47% 30.01 in 6.2 mi Variable 3.5 mph - N/A   Partly Cloudy
2:00 PM 53 °F - 34 °F 36% 30.01 in 6 mi 3.5 mph - -   Scattered Clouds
2:20 PM 55.4 °F - 35.6 °F 47% 29.98 in 6.2 mi Variable 3.5 mph - N/A   Partly Cloudy
2:50 PM 53.6 °F - 35.6 °F 51% 29.98 in 6.2 mi WNW 4.6 mph - N/A   Partly Cloudy
3:20 PM 53.6 °F - 37.4 °F 54% 29.95 in 6.2 mi Variable 3.5 mph - N/A   Partly Cloudy
3:50 PM 55.4 °F - 37.4 °F 51% 29.95 in 6.2 mi Variable 3.5 mph - N/A   Partly Cloudy
4:20 PM 57.2 °F - 35.6 °F 44% 29.95 in 6.2 mi South 5.8 mph - N/A   Partly Cloudy
4:50 PM 57.2 °F - 32.0 °F 38% 29.95 in 6.2 mi South 8.1 mph - N/A   Partly Cloudy
5:20 PM 55.4 °F - 37.4 °F 51% 29.92 in 6.2 mi SSW 5.8 mph - N/A   Partly Cloudy
5:50 PM 53.6 °F - 41.0 °F 62% 29.92 in 6.2 mi South 5.8 mph - N/A   Partly Cloudy
6:20 PM 51.8 °F - 41.0 °F 67% 29.92 in - SSW 4.6 mph - N/A   Clear
6:50 PM 51.8 °F - 41.0 °F 67% 29.92 in - Variable 3.5 mph - N/A   Clear
7:20 PM 48.2 °F - 41.0 °F 76% 29.92 in - Variable 3.5 mph - N/A   Clear
7:50 PM 48.2 °F - 41.0 °F 76% 29.92 in - Variable 3.5 mph - N/A   Clear
8:00 PM 48 °F - 40 °F 66% 29.94 in 6 mi 3.5 mph - -  
8:20 PM 46.4 °F 44.3 °F 39.2 °F 76% 29.92 in - ESE 4.6 mph - N/A   Clear
8:50 PM 44.6 °F - 39.2 °F 81% 29.92 in - Variable 2.3 mph - N/A   Clear
9:20 PM 42.8 °F - 39.2 °F 87% 29.92 in - Variable 2.3 mph - N/A   Clear
9:50 PM 42.8 °F 41.1 °F 39.2 °F 87% 29.92 in - Variable 3.5 mph - N/A   Clear
10:20 PM 41.0 °F 39.0 °F 39.2 °F 93% 29.89 in - Variable 3.5 mph - N/A   Clear
10:50 PM 41.0 °F 36.4 °F 39.2 °F 93% 29.89 in - ESE 6.9 mph - N/A   Clear
11:20 PM 41.0 °F 36.4 °F 39.2 °F 93% 29.89 in - ESE 6.9 mph - N/A   Clear
11:50 PM 41.0 °F 36.4 °F 37.4 °F 87% 29.86 in - ESE 6.9 mph - N/A   Clear